Year,Month,Day,Hour,Minute,Value (Times are PST for temperature in C)
2009,06,29,00,00,8.10
2009,06,29,00,01,8.00
2009,06,29,00,02,8.00
2009,06,29,00,03,8.00
2009,06,29,00,04,7.90
2009,06,29,00,05,7.90
2009,06,29,00,06,7.90
2009,06,29,00,07,7.90
2009,06,29,00,08,7.90
2009,06,29,00,09,7.80
2009,06,29,00,10,7.80
2009,06,29,00,11,7.80
2009,06,29,00,12,7.80
2009,06,29,00,13,7.80
2009,06,29,00,14,7.80
2009,06,29,00,15,7.80
2009,06,29,00,16,7.80
2009,06,29,00,17,7.70
2009,06,29,00,18,7.70
2009,06,29,00,19,7.70
2009,06,29,00,20,7.70
2009,06,29,00,21,7.70
2009,06,29,00,22,7.70
2009,06,29,00,23,7.70
2009,06,29,00,24,7.60
2009,06,29,00,25,7.60
2009,06,29,00,26,7.60
2009,06,29,00,27,7.60
2009,06,29,00,28,7.60
2009,06,29,00,29,7.60
2009,06,29,00,30,7.60
2009,06,29,00,31,7.50
2009,06,29,00,32,7.50
2009,06,29,00,33,7.50
2009,06,29,00,34,7.50
2009,06,29,00,35,7.40
2009,06,29,00,36,7.40
2009,06,29,00,37,7.40
2009,06,29,00,38,7.40
2009,06,29,00,39,7.40
2009,06,29,00,40,7.30
2009,06,29,00,41,7.30
2009,06,29,00,42,7.30
2009,06,29,00,43,7.30
2009,06,29,00,44,7.30
2009,06,29,00,45,7.20
2009,06,29,00,46,7.20
2009,06,29,00,47,7.20
2009,06,29,00,48,7.20
2009,06,29,00,49,7.20
2009,06,29,00,50,7.20
2009,06,29,00,51,7.20
2009,06,29,00,52,7.20
2009,06,29,00,53,7.20
2009,06,29,00,54,7.20
2009,06,29,00,55,7.20
2009,06,29,00,56,7.20
2009,06,29,00,57,7.20
2009,06,29,00,58,7.20
2009,06,29,00,59,7.20
2009,06,29,01,00,7.20
2009,06,29,01,01,7.20
2009,06,29,01,02,7.20
2009,06,29,01,03,7.20
2009,06,29,01,04,7.20
2009,06,29,01,05,7.20
2009,06,29,01,06,7.20
2009,06,29,01,07,7.20
2009,06,29,01,08,7.20
2009,06,29,01,09,7.20
2009,06,29,01,10,7.20
2009,06,29,01,11,7.20
2009,06,29,01,12,7.20
2009,06,29,01,13,7.20
2009,06,29,01,14,7.20
2009,06,29,01,15,7.20
2009,06,29,01,16,7.20
2009,06,29,01,17,7.10
2009,06,29,01,18,7.10
2009,06,29,01,19,7.10
2009,06,29,01,20,7.10
2009,06,29,01,21,7.10
2009,06,29,01,22,7.10
2009,06,29,01,23,7.10
2009,06,29,01,24,7.10
2009,06,29,01,25,7.10
2009,06,29,01,26,7.10
2009,06,29,01,27,7.10
2009,06,29,01,28,7.10
2009,06,29,01,29,7.10
2009,06,29,01,30,7.10
2009,06,29,01,31,7.10
2009,06,29,01,32,7.10
2009,06,29,01,33,7.10
2009,06,29,01,34,7.10
2009,06,29,01,35,7.10
2009,06,29,01,36,7.10
2009,06,29,01,37,7.10
2009,06,29,01,38,7.10
2009,06,29,01,39,7.10
2009,06,29,01,40,7.10
2009,06,29,01,41,7.10
2009,06,29,01,42,7.10
2009,06,29,01,43,7.10
2009,06,29,01,44,7.10
2009,06,29,01,45,7.10
2009,06,29,01,46,7.10
2009,06,29,01,47,7.10
2009,06,29,01,48,7.10
2009,06,29,01,49,7.10
2009,06,29,01,50,7.10
2009,06,29,01,51,7.10
2009,06,29,01,52,7.10
2009,06,29,01,53,7.10
2009,06,29,01,54,7.10
2009,06,29,01,55,7.10
2009,06,29,01,56,7.00
2009,06,29,01,57,7.00
2009,06,29,01,58,7.00
2009,06,29,01,59,7.00
2009,06,29,02,00,7.10
2009,06,29,02,01,7.10
2009,06,29,02,02,7.10
2009,06,29,02,03,7.00
2009,06,29,02,04,7.00
2009,06,29,02,05,7.00
2009,06,29,02,06,7.00
2009,06,29,02,07,7.00
2009,06,29,02,08,6.90
2009,06,29,02,09,6.90
2009,06,29,02,10,6.90
2009,06,29,02,11,6.90
2009,06,29,02,12,6.90
2009,06,29,02,13,6.90
2009,06,29,02,14,6.90
2009,06,29,02,15,6.90
2009,06,29,02,16,6.80
2009,06,29,02,17,6.80
2009,06,29,02,18,6.80
2009,06,29,02,19,6.80
2009,06,29,02,20,6.80
2009,06,29,02,21,6.80
2009,06,29,02,22,6.70
2009,06,29,02,23,6.70
2009,06,29,02,24,6.70
2009,06,29,02,25,6.60
2009,06,29,02,26,6.60
2009,06,29,02,27,6.60
2009,06,29,02,28,6.60
2009,06,29,02,29,6.60
2009,06,29,02,30,6.60
2009,06,29,02,31,6.60
2009,06,29,02,32,6.50
2009,06,29,02,33,6.50
2009,06,29,02,34,6.50
2009,06,29,02,35,6.50
2009,06,29,02,36,6.50
2009,06,29,02,37,6.50
2009,06,29,02,38,6.50
2009,06,29,02,39,6.50
2009,06,29,02,40,6.50
2009,06,29,02,41,6.50
2009,06,29,02,42,6.50
2009,06,29,02,43,6.50
2009,06,29,02,44,6.50
2009,06,29,02,45,6.50
2009,06,29,02,46,6.40
2009,06,29,02,47,6.40
2009,06,29,02,48,6.40
2009,06,29,02,49,6.40
2009,06,29,02,50,6.40
2009,06,29,02,51,6.40
2009,06,29,02,52,6.40
2009,06,29,02,53,6.30
2009,06,29,02,54,6.30
2009,06,29,02,55,6.30
2009,06,29,02,56,6.30
2009,06,29,02,57,6.30
2009,06,29,02,58,6.30
2009,06,29,02,59,6.30
2009,06,29,03,00,6.30
2009,06,29,03,01,6.30
2009,06,29,03,02,6.30
2009,06,29,03,03,6.20
2009,06,29,03,04,6.20
2009,06,29,03,05,6.20
2009,06,29,03,06,6.20
2009,06,29,03,07,6.20
2009,06,29,03,08,6.20
2009,06,29,03,09,6.20
2009,06,29,03,10,6.20
2009,06,29,03,11,6.10
2009,06,29,03,12,6.10
2009,06,29,03,13,6.10
2009,06,29,03,14,6.10
2009,06,29,03,15,6.10
2009,06,29,03,16,6.10
2009,06,29,03,17,6.10
2009,06,29,03,18,6.10
2009,06,29,03,19,6.10
2009,06,29,03,20,6.10
2009,06,29,03,21,6.10
2009,06,29,03,22,6.10
2009,06,29,03,23,6.10
2009,06,29,03,24,6.10
2009,06,29,03,25,6.10
2009,06,29,03,26,6.10
2009,06,29,03,27,6.10
2009,06,29,03,28,6.00
2009,06,29,03,29,6.00
2009,06,29,03,30,6.00
2009,06,29,03,31,6.00
2009,06,29,03,32,6.00
2009,06,29,03,33,6.10
2009,06,29,03,34,6.10
2009,06,29,03,35,6.10
2009,06,29,03,36,6.10
2009,06,29,03,37,6.10
2009,06,29,03,38,6.00
2009,06,29,03,39,6.00
2009,06,29,03,40,6.00
2009,06,29,03,41,6.00
2009,06,29,03,42,5.90
2009,06,29,03,43,5.90
2009,06,29,03,44,5.90
2009,06,29,03,45,5.90
2009,06,29,03,46,5.90
2009,06,29,03,47,5.90
2009,06,29,03,48,5.90
2009,06,29,03,49,5.90
2009,06,29,03,50,5.90
2009,06,29,03,51,5.90
2009,06,29,03,52,5.90
2009,06,29,03,53,5.90
2009,06,29,03,54,5.90
2009,06,29,03,55,5.90
2009,06,29,03,56,5.90
2009,06,29,03,57,5.90
2009,06,29,03,58,5.90
2009,06,29,03,59,5.90
2009,06,29,04,00,5.90
2009,06,29,04,01,5.90
2009,06,29,04,02,5.80
2009,06,29,04,03,5.80
2009,06,29,04,20,5.60
2009,06,29,04,32,5.60
2009,06,29,04,43,5.50
2009,06,29,04,56,5.40
2009,06,29,04,58,5.40
2009,06,29,04,59,5.40
2009,06,29,05,00,5.40
2009,06,29,05,01,5.40
2009,06,29,05,02,5.40
2009,06,29,05,03,5.40
2009,06,29,05,04,5.40
2009,06,29,05,05,5.40
2009,06,29,05,06,5.30
2009,06,29,05,07,5.30
2009,06,29,05,08,5.30
2009,06,29,05,09,5.30
2009,06,29,05,10,5.30
2009,06,29,05,11,5.30
2009,06,29,05,12,5.30
2009,06,29,05,13,5.30
2009,06,29,05,14,5.30
2009,06,29,05,15,5.30
2009,06,29,05,16,5.30
2009,06,29,05,17,5.30
2009,06,29,05,18,5.30
2009,06,29,05,19,5.30
2009,06,29,05,20,5.30
2009,06,29,05,21,5.30
2009,06,29,05,22,5.30
2009,06,29,05,23,5.30
2009,06,29,05,24,5.30
2009,06,29,05,25,5.30
2009,06,29,05,26,5.20
2009,06,29,05,27,5.20
2009,06,29,05,28,5.20
2009,06,29,05,29,5.20
2009,06,29,05,30,5.20
2009,06,29,05,31,5.20
2009,06,29,05,32,5.20
2009,06,29,05,33,5.20
2009,06,29,05,34,5.20
2009,06,29,05,35,5.20
2009,06,29,05,36,5.20
2009,06,29,05,37,5.20
2009,06,29,05,38,5.20
2009,06,29,05,39,5.20
2009,06,29,05,40,5.20
2009,06,29,05,41,5.20
2009,06,29,05,42,5.20
2009,06,29,05,43,5.20
2009,06,29,05,44,5.20
2009,06,29,05,45,5.20
2009,06,29,05,46,5.20
2009,06,29,05,47,5.20
2009,06,29,05,48,5.20
2009,06,29,05,49,5.20
2009,06,29,05,50,5.20
2009,06,29,05,51,5.20
2009,06,29,05,52,5.20
2009,06,29,05,53,5.20
2009,06,29,05,54,5.20
2009,06,29,05,55,5.20
2009,06,29,05,56,5.20
2009,06,29,05,57,5.20
2009,06,29,05,58,5.20
2009,06,29,05,59,5.20
2009,06,29,06,00,5.20
2009,06,29,06,01,5.20
2009,06,29,06,02,5.20
2009,06,29,06,03,5.20
2009,06,29,06,04,5.20
2009,06,29,06,05,5.20
2009,06,29,06,06,5.20
2009,06,29,06,07,5.20
2009,06,29,06,08,5.20
2009,06,29,06,09,5.30
2009,06,29,06,10,5.30
2009,06,29,06,11,5.30
2009,06,29,06,12,5.30
2009,06,29,06,13,5.30
2009,06,29,06,14,5.30
2009,06,29,06,15,5.30
2009,06,29,06,16,5.30
2009,06,29,06,17,5.30
2009,06,29,06,18,5.30
2009,06,29,06,19,5.30
2009,06,29,06,20,5.40
2009,06,29,06,21,5.40
2009,06,29,06,22,5.40
2009,06,29,06,23,5.40
2009,06,29,06,24,5.40
2009,06,29,06,25,5.40
2009,06,29,06,26,5.40
2009,06,29,06,27,5.50
2009,06,29,06,28,5.50
2009,06,29,06,29,5.50
2009,06,29,06,30,5.50
2009,06,29,06,31,5.60
2009,06,29,06,32,5.60
2009,06,29,06,33,5.60
2009,06,29,06,34,5.60
2009,06,29,06,35,5.60
2009,06,29,06,36,5.60
2009,06,29,06,37,5.70
2009,06,29,06,38,5.70
2009,06,29,06,39,5.70
2009,06,29,06,40,5.70
2009,06,29,06,41,5.80
2009,06,29,06,42,5.80
2009,06,29,06,43,5.80
2009,06,29,06,44,5.80
2009,06,29,06,45,5.80
2009,06,29,06,46,5.80
2009,06,29,06,47,5.80
2009,06,29,06,48,5.80
2009,06,29,06,49,5.90
2009,06,29,06,50,5.90
2009,06,29,06,51,5.90
2009,06,29,06,52,5.90
2009,06,29,06,53,6.00
2009,06,29,06,54,6.00
2009,06,29,06,55,6.10
2009,06,29,06,56,6.10
2009,06,29,06,57,6.10
2009,06,29,06,58,6.20
2009,06,29,06,59,6.20
2009,06,29,07,00,6.30
2009,06,29,07,01,6.30
2009,06,29,07,02,6.30
2009,06,29,07,03,6.40
2009,06,29,07,04,6.40
2009,06,29,07,05,6.40
2009,06,29,07,06,6.50
2009,06,29,07,07,6.50
2009,06,29,07,08,6.60
2009,06,29,07,09,6.60
2009,06,29,07,10,6.70
2009,06,29,07,11,6.70
2009,06,29,07,12,6.80
2009,06,29,07,13,6.80
2009,06,29,07,14,6.90
2009,06,29,07,15,6.90
2009,06,29,07,16,6.90
2009,06,29,07,17,7.00
2009,06,29,07,18,7.10
2009,06,29,07,19,7.10
2009,06,29,07,20,7.20
2009,06,29,07,21,7.30
2009,06,29,07,22,7.40
2009,06,29,07,23,7.50
2009,06,29,07,24,7.60
2009,06,29,07,25,7.70
2009,06,29,07,26,7.80
2009,06,29,07,27,8.00
2009,06,29,07,28,8.10
2009,06,29,07,29,8.30
2009,06,29,07,30,8.50
2009,06,29,07,31,8.70
2009,06,29,07,32,8.90
2009,06,29,07,33,9.00
2009,06,29,07,34,9.20
2009,06,29,07,35,9.40
2009,06,29,07,36,9.60
2009,06,29,07,37,9.80
2009,06,29,07,38,10.00
2009,06,29,07,39,10.20
2009,06,29,07,40,10.30
2009,06,29,07,41,10.50
2009,06,29,07,42,10.60
2009,06,29,07,43,10.80
2009,06,29,07,44,10.90
2009,06,29,07,45,11.10
2009,06,29,07,46,11.20
2009,06,29,07,47,11.30
2009,06,29,07,48,11.50
2009,06,29,07,49,11.70
2009,06,29,07,50,11.80
2009,06,29,07,51,12.00
2009,06,29,07,52,12.10
2009,06,29,07,53,12.30
2009,06,29,07,54,12.40
2009,06,29,07,55,12.50
2009,06,29,07,56,12.60
2009,06,29,07,57,12.60
2009,06,29,07,58,12.70
2009,06,29,07,59,12.80
2009,06,29,08,00,12.80
2009,06,29,08,01,12.80
2009,06,29,08,02,12.90
2009,06,29,08,03,13.00
2009,06,29,08,04,13.10
2009,06,29,08,05,13.10
2009,06,29,08,06,13.30
2009,06,29,08,07,13.30
2009,06,29,08,08,13.40
2009,06,29,08,09,13.50
2009,06,29,08,10,13.60
2009,06,29,08,11,13.70
2009,06,29,08,12,13.70
2009,06,29,08,13,13.80
2009,06,29,08,14,13.90
2009,06,29,08,15,13.90
2009,06,29,08,16,14.00
2009,06,29,08,17,14.10
2009,06,29,08,18,14.10
2009,06,29,08,19,14.10
2009,06,29,08,20,14.20
2009,06,29,08,21,14.20
2009,06,29,08,22,14.30
2009,06,29,08,23,14.40
2009,06,29,08,24,14.50
2009,06,29,08,25,14.50
2009,06,29,08,26,14.60
2009,06,29,08,27,14.70
2009,06,29,08,28,14.70
2009,06,29,08,29,14.80
2009,06,29,08,30,14.80
2009,06,29,08,31,14.80
2009,06,29,08,32,14.70
2009,06,29,08,33,14.70
2009,06,29,08,34,14.70
2009,06,29,08,35,14.70
2009,06,29,08,36,14.80
2009,06,29,08,37,14.80
2009,06,29,08,38,14.90
2009,06,29,08,39,15.00
2009,06,29,08,40,15.00
2009,06,29,08,41,15.00
2009,06,29,08,42,15.00
2009,06,29,08,43,15.00
2009,06,29,08,44,15.00
2009,06,29,08,45,15.00
2009,06,29,08,46,15.00
2009,06,29,08,47,15.00
2009,06,29,08,48,15.00
2009,06,29,08,49,15.00
2009,06,29,08,50,15.00
2009,06,29,08,51,15.00
2009,06,29,08,52,15.00
2009,06,29,08,53,15.00
2009,06,29,08,54,15.10
2009,06,29,08,55,15.20
2009,06,29,08,56,15.20
2009,06,29,08,57,15.30
2009,06,29,08,58,15.40
2009,06,29,08,59,15.40
2009,06,29,09,00,15.50
2009,06,29,09,01,15.50
2009,06,29,09,02,15.50
2009,06,29,09,03,15.50
2009,06,29,09,04,15.40
2009,06,29,09,05,15.30
2009,06,29,09,06,15.30
2009,06,29,09,07,15.30
2009,06,29,09,08,15.20
2009,06,29,09,09,15.20
2009,06,29,09,10,15.20
2009,06,29,09,11,15.30
2009,06,29,09,12,15.30
2009,06,29,09,13,15.40
2009,06,29,09,14,15.40
2009,06,29,09,15,15.40
2009,06,29,09,16,15.40
2009,06,29,09,17,15.30
2009,06,29,09,18,15.30
2009,06,29,09,19,15.30
2009,06,29,09,20,15.30
2009,06,29,09,21,15.40
2009,06,29,09,22,15.40
2009,06,29,09,23,15.50
2009,06,29,09,24,15.50
2009,06,29,09,25,15.60
2009,06,29,09,26,15.60
2009,06,29,09,27,15.80
2009,06,29,09,28,15.80
2009,06,29,09,29,15.90
2009,06,29,09,30,15.90
2009,06,29,09,31,16.00
2009,06,29,09,32,16.10
2009,06,29,09,33,16.20
2009,06,29,09,34,16.30
2009,06,29,09,35,16.40
2009,06,29,09,36,16.40
2009,06,29,09,37,16.30
2009,06,29,09,38,16.30
2009,06,29,09,39,16.30
2009,06,29,09,40,16.40
2009,06,29,09,41,16.40
2009,06,29,09,42,16.40
2009,06,29,09,43,16.50
2009,06,29,09,44,16.50
2009,06,29,09,45,16.50
2009,06,29,09,46,16.50
2009,06,29,09,47,16.50
2009,06,29,09,48,16.50
2009,06,29,09,49,16.50
2009,06,29,09,50,16.60
2009,06,29,09,51,16.60
2009,06,29,09,52,16.70
2009,06,29,09,53,16.80
2009,06,29,09,54,16.70
2009,06,29,09,55,16.70
2009,06,29,09,56,16.80
2009,06,29,09,57,16.80
2009,06,29,09,58,16.90
2009,06,29,09,59,17.00
2009,06,29,10,00,17.00
2009,06,29,10,01,17.10
2009,06,29,10,02,17.30
2009,06,29,10,03,17.30
2009,06,29,10,04,17.30
2009,06,29,10,05,17.10
2009,06,29,10,06,17.10
2009,06,29,10,07,17.10
2009,06,29,10,08,17.10
2009,06,29,10,09,17.20
2009,06,29,10,10,17.20
2009,06,29,10,11,17.20
2009,06,29,10,12,17.10
2009,06,29,10,13,17.00
2009,06,29,10,14,17.10
2009,06,29,10,15,17.10
2009,06,29,10,16,17.20
2009,06,29,10,17,17.10
2009,06,29,10,18,17.20
2009,06,29,10,19,17.30
2009,06,29,10,20,17.40
2009,06,29,10,21,17.50
2009,06,29,10,22,17.50
2009,06,29,10,23,17.40
2009,06,29,10,24,17.30
2009,06,29,10,25,17.40
2009,06,29,10,26,17.40
2009,06,29,10,27,17.30
2009,06,29,10,28,17.40
2009,06,29,10,29,17.40
2009,06,29,10,30,17.40
2009,06,29,10,31,17.50
2009,06,29,10,32,17.50
2009,06,29,10,33,17.50
2009,06,29,10,34,17.40
2009,06,29,10,35,17.30
2009,06,29,10,36,17.10
2009,06,29,10,37,17.10
2009,06,29,10,38,17.00
2009,06,29,10,39,16.90
2009,06,29,10,40,16.90
2009,06,29,10,41,16.80
2009,06,29,10,42,16.80
2009,06,29,10,43,16.80
2009,06,29,10,44,16.90
2009,06,29,10,45,17.00
2009,06,29,10,46,17.10
2009,06,29,10,47,17.10
2009,06,29,10,48,17.10
2009,06,29,10,49,17.00
2009,06,29,10,50,16.90
2009,06,29,10,51,17.00
2009,06,29,10,52,17.10
2009,06,29,10,53,17.20
2009,06,29,10,54,17.30
2009,06,29,10,55,17.40
2009,06,29,10,56,17.50
2009,06,29,10,57,17.60
2009,06,29,10,58,17.70
2009,06,29,10,59,17.60
2009,06,29,11,00,17.40
2009,06,29,11,01,17.30
2009,06,29,11,02,17.20
2009,06,29,11,03,17.30
2009,06,29,11,04,17.40
2009,06,29,11,05,17.40
2009,06,29,11,06,17.40
2009,06,29,11,07,17.30
2009,06,29,11,08,17.40
2009,06,29,11,09,17.40
2009,06,29,11,10,17.40
2009,06,29,11,11,17.50
2009,06,29,11,12,17.50
2009,06,29,11,13,17.60
2009,06,29,11,14,17.70
2009,06,29,11,15,17.80
2009,06,29,11,16,17.90
2009,06,29,11,17,17.90
2009,06,29,11,18,17.90
2009,06,29,11,19,17.90
2009,06,29,11,20,18.00
2009,06,29,11,21,18.10
2009,06,29,11,22,18.10
2009,06,29,11,23,18.00
2009,06,29,11,24,17.90
2009,06,29,11,25,17.90
2009,06,29,11,26,17.90
2009,06,29,11,27,17.90
2009,06,29,11,28,18.00
2009,06,29,11,29,18.00
2009,06,29,11,30,18.10
2009,06,29,11,31,18.00
2009,06,29,11,32,18.00
2009,06,29,11,33,18.00
2009,06,29,11,34,17.90
2009,06,29,11,35,17.80
2009,06,29,11,36,17.90
2009,06,29,11,37,17.90
2009,06,29,11,38,18.00
2009,06,29,11,39,18.00
2009,06,29,11,40,18.10
2009,06,29,11,41,18.00
2009,06,29,11,42,18.00
2009,06,29,11,43,18.00
2009,06,29,11,44,18.00
2009,06,29,11,45,18.10
2009,06,29,11,46,18.20
2009,06,29,11,47,18.10
2009,06,29,11,48,18.00
2009,06,29,11,49,17.90
2009,06,29,11,50,17.80
2009,06,29,11,51,17.90
2009,06,29,11,52,18.00
2009,06,29,11,53,17.90
2009,06,29,11,54,17.80
2009,06,29,11,55,17.70
2009,06,29,11,56,17.70
2009,06,29,11,57,17.70
2009,06,29,11,58,17.70
2009,06,29,11,59,17.70
2009,06,29,12,00,17.70
2009,06,29,12,01,17.60
2009,06,29,12,02,17.60
2009,06,29,12,03,17.50
2009,06,29,12,04,17.50
2009,06,29,12,05,17.60
2009,06,29,12,06,17.70
2009,06,29,12,07,17.80
2009,06,29,12,08,17.80
2009,06,29,12,09,17.90
2009,06,29,12,10,17.90
2009,06,29,12,11,17.90
2009,06,29,12,12,17.90
2009,06,29,12,13,17.80
2009,06,29,12,14,17.80
2009,06,29,12,15,17.90
2009,06,29,12,16,17.80
2009,06,29,12,17,17.80
2009,06,29,12,18,17.80
2009,06,29,12,19,17.90
2009,06,29,12,20,17.90
2009,06,29,12,21,17.90
2009,06,29,12,22,17.90
2009,06,29,12,23,17.90
2009,06,29,12,24,17.80
2009,06,29,12,25,17.70
2009,06,29,12,26,17.70
2009,06,29,12,27,17.70
2009,06,29,12,28,17.80
2009,06,29,12,29,17.80
2009,06,29,12,30,17.80
2009,06,29,12,31,17.80
2009,06,29,12,32,17.80
2009,06,29,12,33,17.80
2009,06,29,12,34,17.80
2009,06,29,12,35,18.00
2009,06,29,12,36,18.10
2009,06,29,12,37,18.20
2009,06,29,12,38,18.40
2009,06,29,12,39,18.50
2009,06,29,12,40,18.60
2009,06,29,12,41,18.60
2009,06,29,12,42,18.60
2009,06,29,12,43,18.60
2009,06,29,12,44,18.60
2009,06,29,12,45,18.60
2009,06,29,12,46,18.60
2009,06,29,12,47,18.60
2009,06,29,12,48,18.60
2009,06,29,12,49,18.40
2009,06,29,12,50,18.30
2009,06,29,12,51,18.10
2009,06,29,12,52,18.10
2009,06,29,12,53,18.10
2009,06,29,12,54,18.10
2009,06,29,12,55,18.10
2009,06,29,12,56,18.10
2009,06,29,12,57,18.00
2009,06,29,12,58,17.90
2009,06,29,12,59,18.00
2009,06,29,13,00,18.00
2009,06,29,13,01,18.00
2009,06,29,13,02,18.10
2009,06,29,13,03,18.00
2009,06,29,13,04,18.00
2009,06,29,13,05,18.00
2009,06,29,13,06,18.00
2009,06,29,13,07,17.90
2009,06,29,13,08,17.90
2009,06,29,13,09,17.90
2009,06,29,13,10,17.90
2009,06,29,13,11,17.90
2009,06,29,13,12,18.00
2009,06,29,13,13,18.10
2009,06,29,13,14,18.10
2009,06,29,13,15,18.20
2009,06,29,13,16,18.20
2009,06,29,13,17,18.20
2009,06,29,13,18,18.30
2009,06,29,13,19,18.40
2009,06,29,13,20,18.40
2009,06,29,13,21,18.40
2009,06,29,13,22,18.50
2009,06,29,13,23,18.60
2009,06,29,13,24,18.70
2009,06,29,13,25,18.90
2009,06,29,13,26,19.00
2009,06,29,13,27,19.10
2009,06,29,13,28,19.10
2009,06,29,13,29,19.10
2009,06,29,13,30,19.10
2009,06,29,13,31,19.00
2009,06,29,13,32,18.90
2009,06,29,13,33,18.90
2009,06,29,13,34,18.80
2009,06,29,13,35,18.80
2009,06,29,13,36,18.80
2009,06,29,13,37,18.80
2009,06,29,13,38,18.80
2009,06,29,13,39,18.80
2009,06,29,13,40,18.80
2009,06,29,13,41,18.80
2009,06,29,13,42,18.70
2009,06,29,13,43,18.70
2009,06,29,13,44,18.70
2009,06,29,13,45,18.80
2009,06,29,13,46,19.00
2009,06,29,13,47,19.00
2009,06,29,13,48,19.00
2009,06,29,13,49,18.90
2009,06,29,13,50,18.90
2009,06,29,13,51,18.90
2009,06,29,13,52,18.80
2009,06,29,13,53,18.90
2009,06,29,13,54,18.90
2009,06,29,13,55,18.90
2009,06,29,13,56,19.00
2009,06,29,13,57,19.00
2009,06,29,13,58,19.00
2009,06,29,13,59,18.90
2009,06,29,14,00,18.90
2009,06,29,14,01,18.90
2009,06,29,14,02,18.80
2009,06,29,14,03,18.80
2009,06,29,14,04,18.80
2009,06,29,14,05,18.80
2009,06,29,14,06,18.80
2009,06,29,14,07,18.90
2009,06,29,14,08,18.90
2009,06,29,14,09,18.90
2009,06,29,14,10,18.90
2009,06,29,14,11,18.80
2009,06,29,14,12,18.60
2009,06,29,14,13,18.60
2009,06,29,14,14,18.60
2009,06,29,14,15,18.50
2009,06,29,14,16,18.50
2009,06,29,14,17,18.40
2009,06,29,14,18,18.40
2009,06,29,14,19,18.40
2009,06,29,14,20,18.40
2009,06,29,14,21,18.40
2009,06,29,14,22,18.50
2009,06,29,14,23,18.60
2009,06,29,14,24,18.60
2009,06,29,14,25,18.60
2009,06,29,14,26,18.70
2009,06,29,14,27,18.80
2009,06,29,14,28,18.90
2009,06,29,14,29,18.90
2009,06,29,14,30,18.90
2009,06,29,14,31,18.90
2009,06,29,14,32,18.90
2009,06,29,14,33,18.90
2009,06,29,14,34,18.90
2009,06,29,14,35,18.80
2009,06,29,14,36,18.90
2009,06,29,14,37,18.90
2009,06,29,14,38,19.00
2009,06,29,14,39,19.20
2009,06,29,14,40,19.30
2009,06,29,14,41,19.40
2009,06,29,14,42,19.60
2009,06,29,14,43,19.70
2009,06,29,14,44,19.80
2009,06,29,14,45,19.90
2009,06,29,14,46,19.90
2009,06,29,14,47,19.90
2009,06,29,14,48,19.90
2009,06,29,14,49,19.90
2009,06,29,14,50,19.80
2009,06,29,14,51,19.80
2009,06,29,14,52,19.80
2009,06,29,14,53,19.80
2009,06,29,14,54,19.80
2009,06,29,14,55,19.70
2009,06,29,14,56,19.60
2009,06,29,14,57,19.60
2009,06,29,14,58,19.50
2009,06,29,14,59,19.40
2009,06,29,15,00,19.50
2009,06,29,15,01,19.50
2009,06,29,15,02,19.60
2009,06,29,15,03,19.70
2009,06,29,15,04,19.80
2009,06,29,15,05,19.80
2009,06,29,15,06,19.90
2009,06,29,15,07,19.90
2009,06,29,15,08,20.00
2009,06,29,15,09,20.10
2009,06,29,15,10,20.10
2009,06,29,15,11,20.00
2009,06,29,15,12,19.90
2009,06,29,15,13,19.90
2009,06,29,15,14,19.90
2009,06,29,15,15,20.00
2009,06,29,15,16,20.10
2009,06,29,15,17,20.10
2009,06,29,15,18,20.20
2009,06,29,15,19,20.10
2009,06,29,15,20,20.10
2009,06,29,15,21,20.10
2009,06,29,15,22,20.10
2009,06,29,15,23,20.20
2009,06,29,15,24,20.20
2009,06,29,15,25,20.20
2009,06,29,15,26,20.20
2009,06,29,15,27,20.20
2009,06,29,15,28,20.30
2009,06,29,15,29,20.30
2009,06,29,15,30,20.30
2009,06,29,15,31,20.30
2009,06,29,15,32,20.20
2009,06,29,15,33,20.20
2009,06,29,15,34,20.20
2009,06,29,15,35,20.30
2009,06,29,15,36,20.50
2009,06,29,15,37,20.60
2009,06,29,15,38,20.70
2009,06,29,15,39,20.80
2009,06,29,15,40,20.80
2009,06,29,15,41,20.80
2009,06,29,15,42,20.90
2009,06,29,15,43,20.90
2009,06,29,15,44,21.00
2009,06,29,15,45,21.00
2009,06,29,15,46,20.90
2009,06,29,15,47,20.90
2009,06,29,15,48,20.90
2009,06,29,15,49,20.80
2009,06,29,15,50,20.80
2009,06,29,15,51,20.90
2009,06,29,15,52,20.90
2009,06,29,15,53,20.90
2009,06,29,15,54,20.90
2009,06,29,15,55,20.90
2009,06,29,15,56,20.80
2009,06,29,15,57,20.80
2009,06,29,15,58,20.70
2009,06,29,15,59,20.70
2009,06,29,16,00,20.60
2009,06,29,16,01,20.50
2009,06,29,16,02,20.40
2009,06,29,16,03,20.30
2009,06,29,16,04,20.20
2009,06,29,16,05,20.20
2009,06,29,16,06,20.30
2009,06,29,16,07,20.40
2009,06,29,16,08,20.50
2009,06,29,16,09,20.50
2009,06,29,16,10,20.50
2009,06,29,16,11,20.50
2009,06,29,16,12,20.50
2009,06,29,16,13,20.60
2009,06,29,16,14,20.60
2009,06,29,16,15,20.60
2009,06,29,16,16,20.70
2009,06,29,16,17,20.70
2009,06,29,16,18,20.70
2009,06,29,16,19,20.70
2009,06,29,16,20,20.70
2009,06,29,16,21,20.70
2009,06,29,16,22,20.70
2009,06,29,16,23,20.60
2009,06,29,16,24,20.60
2009,06,29,16,25,20.60
2009,06,29,16,26,20.60
2009,06,29,16,27,20.50
2009,06,29,16,28,20.50
2009,06,29,16,29,20.50
2009,06,29,16,30,20.40
2009,06,29,16,31,20.40
2009,06,29,16,32,20.30
2009,06,29,16,33,20.30
2009,06,29,16,34,20.30
2009,06,29,16,35,20.30
2009,06,29,16,36,20.30
2009,06,29,16,37,20.30
2009,06,29,16,38,20.30
2009,06,29,16,39,20.30
2009,06,29,16,40,20.30
2009,06,29,16,41,20.30
2009,06,29,16,42,20.30
2009,06,29,16,43,20.30
2009,06,29,16,44,20.30
2009,06,29,16,45,20.40
2009,06,29,16,46,20.40
2009,06,29,16,47,20.40
2009,06,29,16,48,20.40
2009,06,29,16,49,20.50
2009,06,29,16,50,20.50
2009,06,29,16,51,20.60
2009,06,29,16,52,20.60
2009,06,29,16,53,20.70
2009,06,29,16,54,20.70
2009,06,29,16,55,20.70
2009,06,29,16,56,20.70
2009,06,29,16,57,20.80
2009,06,29,16,58,20.80
2009,06,29,16,59,20.70
2009,06,29,17,00,20.70
2009,06,29,17,01,20.60
2009,06,29,17,02,20.60
2009,06,29,17,03,20.50
2009,06,29,17,04,20.40
2009,06,29,17,05,20.20
2009,06,29,17,06,20.20
2009,06,29,17,07,20.10
2009,06,29,17,08,20.00
2009,06,29,17,09,20.00
2009,06,29,17,10,19.90
2009,06,29,17,11,19.90
2009,06,29,17,12,19.90
2009,06,29,17,13,19.90
2009,06,29,17,14,19.90
2009,06,29,17,15,19.90
2009,06,29,17,16,20.00
2009,06,29,17,17,20.00
2009,06,29,17,18,20.00
2009,06,29,17,19,20.10
2009,06,29,17,20,20.10
2009,06,29,17,21,20.20
2009,06,29,17,22,20.30
2009,06,29,17,23,20.30
2009,06,29,17,24,20.40
2009,06,29,17,25,20.50
2009,06,29,17,26,20.50
2009,06,29,17,27,20.60
2009,06,29,17,28,20.50
2009,06,29,17,29,20.40
2009,06,29,17,30,20.20
2009,06,29,17,31,20.10
2009,06,29,17,32,20.00
2009,06,29,17,33,20.00
2009,06,29,17,34,19.90
2009,06,29,17,35,20.00
2009,06,29,17,36,20.00
2009,06,29,17,37,20.00
2009,06,29,17,38,20.00
2009,06,29,17,39,20.00
2009,06,29,17,40,20.00
2009,06,29,17,41,20.10
2009,06,29,17,42,20.10
2009,06,29,17,43,20.10
2009,06,29,17,44,20.10
2009,06,29,17,45,20.10
2009,06,29,17,46,20.10
2009,06,29,17,47,20.20
2009,06,29,17,48,20.20
2009,06,29,17,49,20.20
2009,06,29,17,50,20.30
2009,06,29,17,51,20.20
2009,06,29,17,52,20.20
2009,06,29,17,53,20.10
2009,06,29,17,54,20.00
2009,06,29,17,55,20.00
2009,06,29,17,56,20.00
2009,06,29,17,57,20.00
2009,06,29,17,58,20.00
2009,06,29,17,59,19.90
2009,06,29,18,00,19.90
2009,06,29,18,01,19.90
2009,06,29,18,02,19.90
2009,06,29,18,03,19.80
2009,06,29,18,04,19.80
2009,06,29,18,05,19.70
2009,06,29,18,06,19.60
2009,06,29,18,07,19.50
2009,06,29,18,08,19.40
2009,06,29,18,09,19.30
2009,06,29,18,10,19.30
2009,06,29,18,11,19.20
2009,06,29,18,12,19.10
2009,06,29,18,13,18.90
2009,06,29,18,14,18.80
2009,06,29,18,15,18.70
2009,06,29,18,16,18.70
2009,06,29,18,17,18.60
2009,06,29,18,18,18.60
2009,06,29,18,19,18.70
2009,06,29,18,20,18.70
2009,06,29,18,21,18.70
2009,06,29,18,22,18.70
2009,06,29,18,23,18.60
2009,06,29,18,24,18.60
2009,06,29,18,25,18.60
2009,06,29,18,26,18.70
2009,06,29,18,27,18.70